Tracking 19720 objects as of 26-Jun-2019
HD Live streaming from Space Station
objects crossing your sky now

DELTA 1 DEB

Track DELTA 1 DEB now!
10-day predictions


NORAD ID: 12166
Int'l Code: 1978-026F
Perigee: 817.5 km
Apogee: 870.5 km
Inclination: 98.9 °
Period: 101.7 minutes
Semi major axis: 7214 km
RCS: 0.6029 m2 (medium)
Launch date: March 5, 1978
Source: United States (US)
Launch site: AIR FORCE WESTERN TEST RANGE (AFWTR)

Note: This is SATELLITE DEBRIS
aabbcc
Your satellite tracking list
Your tracking list is empty




NASA's NSSDC Master Catalog

Two Line Element Set (TLE):
1 12166U 78026F   19177.13625838  .00000069  00000-0  57073-4 0  9991
2 12166  98.8941 158.1856 0036732 269.5721 229.9484 14.16609532979060
Source of the keplerian elements: AFSPC